This is the latest recevied weather packets stored in our database for station/object K7SKM. If no packets are shown the sender has not sent any weather packets the latest 10 day(s).
| Time | Temp. | Humidity | Pressure | Rain* | Wind** | Luminosity | Snow |
|---|---|---|---|---|---|---|---|
| 1787452778 | 20.56° C | 60% | 1021.8 hPa | 0 mm | - | 1 W/m² | - |
| 1787452476 | 20.56° C | 60% | 1021.6 hPa | 0 mm | - | 1 W/m² | - |
| 1787452173 | 20.56° C | 60% | 1021.5 hPa | 0 mm | - | 2 W/m² | - |
| 1787451868 | 20.56° C | 60% | 1021.5 hPa | 0 mm | - | 4 W/m² | - |
| 1787451567 | 20.56° C | 60% | 1021.7 hPa | 0 mm | - | 4 W/m² | - |
| 1787451266 | 20.56° C | 60% | 1021.5 hPa | 0 mm | - | 5 W/m² | - |
| 1787450963 | 21.11° C | 59% | 1021.5 hPa | 0 mm | - | 7 W/m² | - |
| 1787450658 | 21.11° C | 60% | 1021.4 hPa | 0 mm | - | 11 W/m² | - |
| 1787450354 | 21.11° C | 60% | 1021.3 hPa | 0 mm | - | 18 W/m² | - |
| 1787450049 | 21.67° C | 59% | 1021.4 hPa | 0 mm | - | 30 W/m² | - |
| 1787449745 | 21.11° C | 59% | 1021.4 hPa | 0 mm | - | 49 W/m² | - |
| 1787449440 | 21.11° C | 59% | 1021.3 hPa | 0 mm | - | 47 W/m² | - |
| 1787449135 | 21.67° C | 59% | 1021.4 hPa | 0 mm | - | 51 W/m² | - |
| 1787448829 | 21.67° C | 57% | 1021.3 hPa | 0 mm | - | 44 W/m² | - |
| 1787448525 | 22.22° C | 57% | 1021.3 hPa | 0 mm | - | 93 W/m² | - |
| 1787448222 | 22.78° C | 56% | 1021.2 hPa | 0 mm | - | 175 W/m² | - |
| 1787447916 | 22.78° C | 55% | 1021.1 hPa | 0 mm | - | 261 W/m² | - |
| 1787447616 | 22.78° C | 55% | 1021 hPa | 0 mm | - | 281 W/m² | - |
| 1787447311 | 23.33° C | 55% | 1021.1 hPa | 0 mm | - | 283 W/m² | - |
| 1787447008 | 23.89° C | 53% | 1020.9 hPa | 0 mm | - | 291 W/m² | - |
| 1787446707 | 23.89° C | 54% | 1021.1 hPa | 0 mm | - | 282 W/m² | - |
| 1787446403 | 23.89° C | 53% | 1021 hPa | 0 mm | - | 284 W/m² | - |
| 1787446099 | 23.89° C | 54% | 1020.8 hPa | 0 mm | - | 287 W/m² | - |
| 1787445795 | 23.89° C | 53% | 1020.8 hPa | 0 mm | - | 296 W/m² | - |
| 1787445492 | 25° C | 51% | 1020.8 hPa | 0 mm | - | 308 W/m² | - |
* Rain latest hour (hover to see other rain measurements)
** Current wind speed in m/s (hover to see current wind gust speed)